CW5920 Weather Reports


time (UTC)temp
F
wind
direction
speed
knots
gust
knots
rain 1hr
in
rain 24hr
in
rain mn
in
humidity
%
barometer
mb
20260903145516 81 135 5.2 8.7 0.00 0.00 0.00 83 1013.5
20260903144516 80 135 1.7 3.5 0.00 0.00 0.00 85 1013.4
20260903143516 80 113 3.5 9.6 0.00 0.00 0.00 85 1013.3
20260903142516 79 113 5.2 8.7 0.00 0.00 0.00 86 1013.2
20260903141516 78 113 4.3 7.8 0.00 0.00 0.00 87 1013.1
20260903140536 78 113 3.5 6.1 0.00 0.00 0.00 88 1013.3
20260903135516 77 113 2.6 6.1 0.00 0.00 0.00 89 1013.2
20260903134516 77 90 1.7 2.6 0.00 0.00 0.00 89 1013.1
20260903133516 76 90 1.7 5.2 0.00 0.00 0.00 90 1013.2
20260903132536 76 90 1.7 5.2 0.00 0.00 0.00 90 1013.3
20260903131516 75 90 0.9 2.6 0.00 0.00 0.00 91 1013.2
20260903130516 75 0.0 1.7 0.00 0.00 0.00 90 1013.2
20260903125536 75 0.0 1.7 0.00 0.00 0.00 90 1013.2
20260903124516 75 0.0 0.9 0.00 0.00 0.00 90 1013.2
20260903123516 75 0.0 1.7 0.00 0.00 0.00 90 1013.2
20260903122516 75 0.0 2.6 0.00 0.00 0.00 90 1013.1
20260903121516 75 0.0 2.6 0.00 0.00 0.00 89 1013.0
20260903120536 75 90 0.9 2.6 0.00 0.00 0.00 89 1013.0
20260903115516 75 90 0.9 2.6 0.00 0.00 0.00 89 1013.0
20260903114516 75 90 1.7 3.5 0.00 0.00 0.00 89 1013.0
20260903113516 75 0.0 2.6 0.00 0.00 0.00 89 1012.9
20260903111516 75 90 1.7 5.2 0.00 0.00 0.00 88 1012.8
20260903110516 75 90 0.9 2.6 0.00 0.00 0.00 88 1012.7
20260903105516 75 90 0.9 2.6 0.00 0.00 0.00 88 1012.7
20260903104516 75 90 0.9 2.6 0.00 0.00 0.00 88 1012.7
20260903103516 75 90 0.9 3.5 0.00 0.00 0.00 88 1012.7
20260903102516 75 0.0 2.6 0.00 0.00 0.00 87 1012.7
20260903101556 75 0.0 1.7 0.00 0.00 0.00 87 1012.8
20260903100556 75 0.0 1.7 0.00 0.00 0.00 87 1012.6
20260903095536 75 113 0.9 3.5 0.00 0.00 0.00 87 1012.7
20260903094516 75 113 0.9 3.5 0.00 0.00 0.00 87 1012.6
20260903093516 75 113 0.9 2.6 0.00 0.00 0.00 87 1012.6
20260903092516 75 113 0.9 2.6 0.00 0.00 0.00 86 1012.5
20260903091516 75 0.0 0.0 0.00 0.00 0.00 85 1012.5
20260903090536 75 0.0 0.0 0.00 0.00 0.00 85 1012.6
20260903085517 76 0.0 0.0 0.00 0.00 0.00 85 1012.6
20260903084517 76 0.0 0.0 0.00 0.00 0.00 85 1012.6
20260903083517 76 0.0 0.0 0.00 0.00 0.00 84 1012.8
20260903082517 76 0.0 0.0 0.00 0.00 0.00 84 1012.8
20260903081517 76 0.0 0.0 0.00 0.00 0.00 83 1012.8
20260903080517 76 0.0 0.0 0.00 0.00 0.00 83 1012.8
20260903075517 76 0.0 0.0 0.00 0.00 0.00 83 1012.9
20260903074517 77 0.0 0.0 0.00 0.00 0.00 82 1012.8
20260903073517 77 0.0 0.9 0.00 0.00 0.00 81 1012.8
20260903072537 77 0.0 0.9 0.00 0.00 0.00 79 1012.9
20260903071537 78 0.0 0.0 0.00 0.00 0.00 79 1012.9
20260903070517 78 0.0 0.0 0.00 0.00 0.00 78 1013.0
20260903065517 78 0.0 0.0 0.00 0.00 0.00 78 1013.2
20260903064517 79 0.0 0.0 0.00 0.00 0.00 77 1013.2
20260903063517 79 0.0 0.0 0.00 0.00 0.00 77 1013.3
20260903062517 79 0.0 2.6 0.00 0.00 0.00 76 1013.4
20260903061517 79 113 0.9 3.5 0.00 0.00 0.00 76 1013.4
20260903060517 80 113 1.7 5.2 0.00 0.00 0.00 75 1013.4
20260903055517 80 90 3.5 7.8 0.00 0.00 0.00 74 1013.5
20260903054517 80 90 5.2 9.6 0.00 0.00 0.00 74 1013.5
20260903053517 81 90 4.3 11.3 0.00 0.00 0.00 74 1013.6
20260903052517 81 113 3.5 7.0 0.00 0.00 0.00 73 1013.6
20260903051517 81 113 4.3 8.7 0.00 0.00 0.00 73 1013.5
20260903050517 82 113 3.5 7.0 0.00 0.00 0.00 72 1013.4
20260903045517 82 90 3.5 7.0 0.00 0.00 0.00 72 1013.4
20260903044517 82 90 3.5 7.8 0.00 0.00 0.00 71 1013.3
20260903043517 82 90 3.5 8.7 0.00 0.00 0.00 71 1013.1
20260903042537 83 90 3.5 7.0 0.00 0.00 0.00 71 1013.3
20260903041517 83 113 3.5 7.8 0.00 0.00 0.00 70 1013.4
20260903040537 84 113 1.7 5.2 0.00 0.00 0.00 69 1013.4
20260903035537 84 113 1.7 5.2 0.00 0.00 0.00 69 1013.4
20260903034517 85 113 1.7 3.5 0.00 0.00 0.00 68 1013.2
20260903033517 85 113 1.7 5.2 0.00 0.00 0.00 67 1013.3
20260903032517 85 113 4.3 9.6 0.00 0.00 0.00 66 1013.3
20260903031517 86 113 6.1 9.6 0.00 0.00 0.00 65 1013.2
20260903030517 86 90 5.2 8.7 0.00 0.00 0.00 64 1013.1
20260903025637 86 113 3.5 10.4 0.00 0.00 0.00 63 1013.0
20260903024517 87 113 2.6 7.0 0.00 0.00 0.00 63 1012.8
20260903023517 87 113 2.6 6.1 0.00 0.00 0.00 62 1012.5
20260903022517 87 113 2.6 7.0 0.00 0.00 0.00 61 1012.5
20260903021517 88 113 3.5 7.8 0.00 0.00 0.00 60 1012.3
20260903020517 88 113 5.2 7.8 0.00 0.00 0.00 60 1012.2
20260903015517 89 113 3.5 7.0 0.00 0.00 0.00 58 1012.0
20260903014517 89 113 6.1 10.4 0.00 0.00 0.00 57 1011.9
20260903013517 90 113 7.0 10.4 0.00 0.00 0.00 56 1011.8
20260903012517 90 113 7.8 11.3 0.00 0.00 0.00 54 1011.7
20260903011517 91 90 7.0 12.2 0.00 0.00 0.00 50 1011.4
20260903010537 92 90 7.8 11.3 0.00 0.00 0.00 48 1011.3
20260903005517 93 90 7.0 12.2 0.00 0.00 0.00 48 1011.3
20260903004517 93 90 8.7 13.9 0.00 0.00 0.00 47 1011.2
20260903003517 94 90 7.8 14.8 0.00 0.00 0.00 46 1011.2
20260903002516 95 90 4.3 10.4 0.00 0.00 0.00 43 1011.1
20260903001537 96 68 7.0 12.2 0.00 0.00 0.00 42 1011.1
20260903000517 96 90 5.2 9.6 0.00 0.00 0.00 41 1011.0
20260902235516 96 68 3.5 7.8 0.00 0.00 0.00 41 1011.1
20260902234517 97 45 4.3 10.4 0.00 0.00 0.00 40 1011.0
20260902233517 97 90 6.1 10.4 0.00 0.00 0.00 39 1011.0
20260902232517 97 90 6.1 10.4 0.00 0.00 0.00 39 1011.0
20260902231516 97 68 5.2 11.3 0.00 0.00 0.00 41 1011.1
20260902230637 97 68 5.2 11.3 0.00 0.00 0.00 41 1011.0
20260902225517 97 45 6.1 12.2 0.00 0.00 0.00 41 1011.1
20260902224517 97 68 4.3 10.4 0.00 0.00 0.00 41 1011.2
20260902223516 97 45 2.6 9.6 0.00 0.00 0.00 41 1011.2
20260902222537 98 0 3.5 8.7 0.00 0.00 0.00 41 1011.3
20260902221517 97 23 2.6 9.6 0.00 0.00 0.00 39 1011.4
20260902220517 98 0 6.1 10.4 0.00 0.00 0.00 39 1011.4
20260902215516 98 45 3.5 10.4 0.00 0.00 0.00 38 1011.5
20260902214536 98 68 4.3 11.3 0.00 0.00 0.00 40 1011.7
20260902213516 99 68 6.1 11.3 0.00 0.00 0.00 40 1011.7
20260902212516 99 23 3.5 9.6 0.00 0.00 0.00 40 1011.8
20260902211517 99 338 5.2 9.6 0.00 0.00 0.00 40 1011.8
20260902210516 99 0 4.3 8.7 0.00 0.00 0.00 40 1011.9
20260902205517 99 0 4.3 10.4 0.00 0.00 0.00 40 1012.1
20260902204516 99 45 4.3 9.6 0.00 0.00 0.00 41 1012.2
20260902203537 98 45 4.3 9.6 0.00 0.00 0.00 40 1012.3
20260902202517 99 0 3.5 8.7 0.00 0.00 0.00 40 1012.4
20260902201517 99 0 3.5 8.7 0.00 0.00 0.00 40 1012.6
20260902200517 99 90 2.6 8.7 0.00 0.00 0.00 41 1012.7
20260902195516 99 68 4.3 10.4 0.00 0.00 0.00 40 1012.9
20260902194516 99 0 2.6 8.7 0.00 0.00 0.00 40 1013.0
20260902193517 99 45 4.3 8.7 0.00 0.00 0.00 39 1013.2
20260902192517 99 338 3.5 9.6 0.00 0.00 0.00 39 1013.5
20260902191517 98 338 3.5 11.3 0.00 0.00 0.00 40 1013.6
20260902190516 98 0 3.5 9.6 0.00 0.00 0.00 41 1013.7
20260902185516 98 90 7.0 12.2 0.00 0.00 0.00 40 1013.9
20260902184517 98 0 1.7 7.8 0.00 0.00 0.00 42 1014.0
20260902183516 97 45 4.3 10.4 0.00 0.00 0.00 41 1014.2
20260902182517 98 338 2.6 7.0 0.00 0.00 0.00 41 1014.4
20260902181517 98 0 2.6 6.1 0.00 0.00 0.00 41 1014.5
20260902180517 98 0 1.7 8.7 0.00 0.00 0.00 42 1014.8
20260902175536 98 338 4.3 9.6 0.00 0.00 0.00 42 1015.0
20260902174517 97 338 3.5 8.7 0.00 0.00 0.00 43 1015.2
20260902173516 97 293 4.3 9.6 0.00 0.00 0.00 43 1015.3
20260902172516 96 0 1.7 5.2 0.00 0.00 0.00 44 1015.4
20260902171556 96 68 1.7 7.8 0.00 0.00 0.00 46 1015.5
20260902170516 96 68 1.7 7.0 0.00 0.00 0.00 45 1015.7
20260902165517 95 113 1.7 5.2 0.00 0.00 0.00 46 1015.7
20260902164517 95 68 0.9 3.5 0.00 0.00 0.00 47 1015.8
20260902163516 95 45 0.9 6.1 0.00 0.00 0.00 47 1015.8
20260902162516 94 68 0.9 6.1 0.00 0.00 0.00 47 1015.9
20260902161516 94 135 0.9 3.5 0.00 0.00 0.00 49 1016.0
20260902160516 93 0.0 2.6 0.00 0.00 0.00 51 1016.1
20260902155516 92 0.0 2.6 0.00 0.00 0.00 53 1016.0
20260902154516 91 68 1.7 4.3 0.00 0.00 0.00 55 1016.0
20260902153536 91 23 0.9 3.5 0.00 0.00 0.00 56 1016.0
20260902152516 90 0.0 1.7 0.00 0.00 0.00 58 1016.1
20260902151517 90 68 0.9 5.2 0.00 0.00 0.00 59 1016.1
20260902150516 89 90 0.9 3.5 0.00 0.00 0.00 59 1016.1